Theta_e
337 338 340 337 335 335 337 339 341 341 343 344 346 346 348 349 351 353 353 355 356 357 358 359 360 360 360 359 360 361 360 361 361 360 360 361 362 363 363 362 362 364 362 361 363 363 366 368 367 366 368 369 369 371 371 372 371 368 370 372 372 370 369
337 338 339 338 335 335 338 340 341 342 343 344 345 347 348 349 351 352 353 355 356 357 357 358 359 360 359 360 360 362 361 361 362 363 361 363 364 365 364 365 364 365 367 365 365 368 368 367 368 367 367 369 368 371 370 370 371 370 369 371 369 368 369
337 338 339 340 336 335 338 340 341 341 343 344 345 346 347 350 352 353 354 354 355 357 357 357 359 359 360 360 360 361 360 360 361 360 359 357 360 358 362 365 364 363 363 365 368 365 366 366 369 368 367 367 365 370 371 370 371 369 370 370 369 366 368
337 340 341 342 339 339 340 341 341 342 343 343 344 345 347 351 352 354 354 354 354 356 355 356 357 357 358 359 359 360 361 361 360 358 357 357 359 359 361 362 364 363 364 363 363 364 362 366 367 368 369 368 369 368 369 368 368 369 370 371 369 368 369
338 340 341 342 342 338 339 340 341 343 343 343 346 348 348 350 351 353 353 353 353 354 354 355 355 356 358 359 357 358 359 360 360 360 359 359 362 362 360 358 360 361 362 362 365 367 367 367 365 367 368 370 368 369 369 369 369 371 371 371 369 368 364
337 339 341 343 342 340 340 342 343 344 344 345 346 348 349 350 350 350 352 353 353 354 355 356 355 356 356 357 357 357 360 362 363 364 361 363 363 360 360 360 359 360 359 362 363 364 365 365 365 365 364 363 363 363 366 367 367 368 369 370 369 366 363
339 341 341 341 342 343 342 341 341 342 345 347 349 349 347 348 350 350 351 352 353 353 352 353 354 355 357 357 357 359 359 359 361 360 361 360 361 361 361 361 362 360 360 364 363 364 363 364 366 367 365 363 365 363 366 370 369 369 371 371 370 370 369
341 341 341 341 341 342 343 344 344 342 344 347 347 348 347 348 351 351 352 352 353 354 354 353 353 355 356 358 358 357 357 357 359 361 362 359 360 360 361 361 362 363 364 362 364 365 362 365 364 365 365 364 365 367 366 369 372 367 368 369 368 368 364
342 342 340 340 341 342 346 348 347 346 347 347 347 348 351 351 351 350 352 353 354 353 354 352 353 357 359 358 358 358 357 357 359 360 360 358 358 357 357 360 361 364 362 359 360 364 363 363 362 366 368 365 366 368 367 369 368 368 368 369 369 368 364
340 340 341 341 341 342 344 347 346 344 347 348 349 348 347 349 352 352 352 354 354 354 354 354 356 358 359 359 359 358 358 359 358 357 357 356 357 357 357 357 359 362 360 360 359 359 364 365 364 366 368 365 366 367 367 368 367 367 369 369 369 369 368
340 340 340 342 344 344 344 344 344 344 343 345 349 350 350 350 347 348 353 354 353 355 356 356 358 358 358 358 359 360 360 359 358 356 356 356 356 356 357 357 358 360 360 359 358 359 361 365 366 366 366 361 362 364 367 366 367 368 366 367 368 368 366
338 338 338 341 341 343 345 346 346 348 346 345 347 349 350 350 351 351 355 356 357 355 357 358 359 356 355 358 358 360 360 360 360 358 357 356 355 356 356 357 358 359 359 359 358 360 358 360 361 361 364 364 363 364 366 368 368 369 368 365 366 367 366
336 337 338 340 342 343 343 343 343 345 346 346 346 346 348 351 352 352 352 352 353 355 358 359 358 357 356 357 358 359 360 359 360 359 357 359 358 357 357 357 357 358 358 359 359 359 357 358 360 362 362 364 364 362 365 367 366 368 370 367 367 367 367
334 335 337 339 339 339 340 341 343 344 346 345 346 348 348 349 351 352 352 352 352 353 357 355 353 353 355 357 356 357 357 359 361 360 359 361 364 362 359 358 358 358 359 360 360 358 357 357 357 360 361 361 362 363 365 366 365 367 368 367 365 364 365
331 332 334 334 335 336 338 339 341 343 344 345 346 347 347 348 349 351 352 352 352 354 354 356 355 354 355 356 356 357 357 358 358 359 361 362 362 362 361 359 360 360 360 361 359 357 358 358 357 357 358 359 360 362 362 359 360 361 363 364 365 364 362
330 331 332 333 334 335 337 339 341 341 342 343 344 345 345 346 348 349 350 351 351 352 354 355 353 352 351 349 350 353 355 357 358 358 358 358 359 360 360 359 359 358 358 359 359 360 361 360 359 357 356 357 359 360 358 358 358 361 352 354 361 363 360
330 331 332 333 334 335 336 336 337 337 337 337 339 340 341 344 345 345 346 348 351 352 353 352 349 349 348 346 348 349 350 351 351 352 354 353 353 354 354 357 357 357 358 357 357 359 361 360 359 358 356 355 356 356 355 355 355 350 338 337 341 357 361
329 330 331 331 332 333 332 332 333 333 333 333 334 335 336 337 337 337 337 339 341 345 348 349 348 346 346 347 347 347 346 346 346 349 350 349 348 348 350 351 352 354 356 356 356 358 356 355 356 358 357 355 355 354 353 353 354 337 334 335 334 343 358
329 329 329 330 330 330 330 330 330 331 330 330 330 330 332 333 332 331 333 333 334 338 343 344 344 343 344 346 347 347 347 346 345 347 349 349 348 346 346 346 348 350 351 353 355 356 357 358 356 355 355 354 355 353 353 353 347 335 332 331 331 331 344
329 329 329 329 329 329 329 330 329 327 327 328 328 328 329 330 330 330 331 332 333 333 334 334 333 334 335 336 338 342 347 347 348 347 347 348 348 347 346 345 346 349 352 353 355 354 356 357 358 358 360 359 358 358 356 355 352 337 331 328 328 329 335
325 325 325 326 326 327 327 327 327 327 328 330 329 328 327 326 328 328 328 329 329 331 331 332 332 333 334 333 332 332 332 334 335 336 338 342 345 346 347 348 349 351 352 353 354 355 356 355 356 358 358 357 355 355 355 355 346 338 333 327 324 325 333
325 325 325 326 326 326 325 326 326 326 326 328 329 328 325 324 324 324 324 327 327 328 328 329 328 329 330 329 329 329 330 329 330 331 332 333 333 333 335 338 339 341 347 351 353 354 356 353 354 354 355 356 355 353 352 354 330 330 330 327 326 327 344
326 325 326 327 326 326 328 328 327 327 326 324 324 324 324 323 323 323 322 323 324 326 326 327 327 328 329 329 329 329 329 329 329 329 330 331 331 331 332 334 335 338 342 344 347 349 350 352 352 353 354 354 353 350 352 353 337 325 324 324 323 334 355
325 326 325 325 326 326 326 326 325 323 321 321 321 322 324 325 324 323 323 323 325 325 325 325 325 326 327 326 328 329 330 331 331 330 330 330 331 332 335 337 336 336 338 340 344 347 348 351 352 352 353 354 355 354 354 352 340 327 320 320 322 332 355
324 324 325 325 325 324 324 324 323 322 322 321 320 322 323 323 322 320 320 320 321 323 323 323 324 324 325 325 327 328 329 330 330 331 330 330 330 332 332 334 337 337 337 339 341 345 348 350 350 350 350 350 352 351 349 346 342 323 319 318 320 340 358
321 322 323 324 325 325 325 325 323 321 320 320 321 322 323 321 321 322 320 318 318 318 319 321 323 324 325 325 326 328 328 329 329 329 329 329 330 331 332 334 335 338 340 338 339 340 346 350 350 349 346 342 344 347 347 342 340 333 316 315 318 324 352
320 321 321 321 322 324 322 322 321 320 320 321 322 321 321 321 320 320 321 321 320 319 320 322 324 325 325 325 324 325 327 328 329 328 329 329 330 330 331 333 333 335 338 339 341 341 344 347 346 337 338 338 339 342 342 340 338 338 318 313 312 319 335
319 319 321 322 322 321 320 319 319 319 319 320 320 321 321 321 321 321 320 319 318 320 323 324 324 325 326 326 325 324 324 325 327 328 326 329 330 329 329 331 330 332 334 335 335 334 335 338 338 338 335 337 338 339 341 341 338 342 325 315 312 313 320
318 318 319 319 319 320 318 317 317 317 318 319 320 320 320 320 320 319 319 318 320 320 322 322 323 324 324 325 325 324 324 324 324 325 325 326 328 328 327 329 329 331 333 332 332 332 331 332 333 332 332 332 335 337 338 341 340 332 337 317 311 311 314
317 317 317 317 318 317 318 316 316 316 317 318 320 321 322 321 319 319 318 318 322 321 321 322 322 323 321 322 323 323 323 322 322 324 324 325 326 327 327 327 328 329 329 331 330 330 330 331 331 330 327 327 329 331 333 336 338 335 332 327 313 310 309
316 316 316 317 319 318 317 316 315 315 316 318 319 320 321 320 318 317 317 319 321 321 321 320 321 321 320 320 320 321 322 322 321 322 323 323 324 325 325 325 327 326 328 329 328 328 330 331 330 329 327 326 325 327 330 331 333 334 332 329 325 315 311
314 315 316 317 317 318 317 316 316 315 314 315 316 317 319 318 318 316 317 319 320 320 320 320 320 320 320 319 320 320 321 321 320 320 322 322 323 323 323 323 324 326 326 325 325 326 327 328 329 329 329 325 325 326 326 329 330 331 332 330 329 328 320
315 314 314 315 317 317 316 315 314 314 314 313 314 314 314 315 315 317 319 319 317 318 320 319 318 318 319 319 319 321 322 322 320 319 319 320 320 320 321 322 322 323 324 324 322 322 323 323 325 325 324 325 325 326 328 328 330 331 330 331 329 329 329
313 314 316 316 317 318 318 317 316 314 314 313 313 314 313 313 313 315 316 315 315 317 318 318 317 316 317 317 319 320 320 320 319 319 318 319 319 319 320 320 320 320 321 322 322 321 321 321 322 321 321 321 322 325 326 326 328 329 326 326 325 325 327
312 314 315 315 317 318 318 318 316 316 314 314 315 315 315 314 313 313 313 313 315 316 316 315 316 317 316 317 318 318 320 319 319 319 318 319 320 321 321 319 319 321 322 322 322 321 319 320 319 320 320 320 322 322 324 325 325 326 311 319 307 313 318
312 312 313 316 317 318 318 318 317 315 315 314 315 315 315 314 315 315 313 313 314 314 313 315 315 315 316 317 316 317 317 318 318 319 319 318 318 319 321 320 313 316 320 320 319 313 306 305 319 318 320 321 324 325 322 322 323 309 299 298 296 297 297
311 312 313 315 315 316 316 316 317 316 315 315 316 315 315 314 314 314 314 314 314 313 313 313 313 314 315 316 316 316 316 317 317 318 319 319 319 320 319 320 325 303 304 310 314 307 300 299 299 300 305 317 321 321 315 312 306 300 297 295 296 295 294
313 313 314 315 316 316 316 315 315 315 314 315 315 314 314 313 313 313 313 313 313 313 313 312 312 312 313 314 315 316 317 316 317 317 317 318 319 319 318 318 318 321 310 306 307 306 302 300 299 300 302 303 308 316 323 314 305 297 295 295 295 295 294
Wind_Speed
12 12 12 12 12 13 13 14 14 13 13 13 13 14 14 12 11 11 11 11 13 12 12 11 11 9 10 9 9 9 8 8 7 7 7 6 6 6 6 6 6 6 5 5 5 5 5 5 5 6 5 5 5 4 4 4 3 2 2 2 2 1 2
13 12 11 12 12 13 14 14 14 13 13 13 13 14 13 13 12 12 12 13 14 14 13 12 12 11 10 10 9 9 10 9 8 7 7 5 5 5 6 6 6 6 6 5 4 4 5 5 6 6 6 5 6 5 4 4 4 4 3 2 2 2 2
14 12 11 10 11 11 12 12 13 13 13 13 13 13 13 13 13 14 13 13 14 13 12 13 13 12 11 10 10 10 10 10 10 9 9 8 8 9 7 6 6 6 6 6 5 4 5 5 5 5 6 5 5 4 4 4 4 4 3 3 3 2 2
13 12 12 13 10 8 11 12 14 12 12 14 15 16 15 14 14 12 12 14 14 13 13 13 12 12 11 11 11 10 11 11 11 10 10 9 8 7 6 6 5 5 5 6 6 5 4 5 5 5 5 5 5 4 4 4 4 4 4 3 3 2 3
14 15 12 11 9 9 9 10 12 11 13 14 13 13 13 12 12 10 11 12 13 15 15 15 12 12 10 11 9 9 11 12 11 10 9 8 7 6 6 7 6 7 6 6 5 5 5 5 5 5 5 5 5 4 5 5 5 4 4 3 3 2 3
14 13 10 8 7 6 5 5 6 9 10 10 10 9 8 9 9 10 10 10 11 11 10 11 12 12 12 12 10 9 9 9 9 9 8 7 7 7 7 7 7 7 7 7 5 6 6 5 6 6 6 6 6 5 5 5 5 5 4 3 3 3 4
10 10 10 10 9 9 9 9 9 11 10 9 8 8 8 9 10 10 9 10 10 10 11 12 12 11 10 10 11 10 11 11 10 10 8 9 8 8 7 7 7 7 7 5 6 5 6 6 6 6 6 6 5 5 4 4 4 4 4 4 4 4 4
10 11 11 12 11 11 10 10 11 11 10 9 9 10 11 10 10 10 11 10 10 9 9 10 11 10 10 9 9 11 11 12 10 10 8 9 8 9 8 7 7 7 6 7 6 6 7 7 6 6 6 6 6 5 5 4 5 5 4 5 5 6 5
9 11 12 11 11 9 7 7 7 7 9 10 10 9 8 6 8 9 11 10 10 10 11 11 9 8 8 8 8 10 10 10 10 9 10 11 9 10 10 8 8 7 7 7 6 6 6 6 7 6 6 6 5 5 5 5 5 5 5 5 6 6 6
10 11 11 11 10 9 8 7 6 7 7 8 8 9 10 8 5 5 7 8 9 11 12 11 9 8 7 8 9 9 9 9 9 10 11 12 10 11 11 9 8 7 8 7 7 6 6 6 6 5 5 6 6 6 6 5 5 5 5 6 7 7 7
9 10 11 9 9 9 9 9 9 8 8 7 6 8 9 11 11 11 9 10 10 9 10 9 8 7 8 9 9 9 8 9 9 10 11 11 10 11 11 10 8 7 8 7 7 7 6 5 5 5 6 6 7 7 6 6 6 6 6 6 6 7 7
8 9 8 8 8 7 7 6 5 5 6 4 5 6 7 8 7 6 5 6 5 7 7 6 5 5 7 7 9 8 9 9 9 10 11 11 10 10 9 9 9 7 6 7 8 7 7 7 6 6 6 7 7 7 7 6 6 6 7 7 7 7 7
7 6 7 7 7 5 5 5 7 8 7 5 5 4 3 4 5 7 6 10 9 6 6 6 7 6 7 7 8 8 9 10 10 10 10 9 8 8 7 8 8 8 8 7 7 7 7 7 7 6 6 6 7 7 7 7 7 6 7 7 7 7 8
5 5 4 3 3 3 4 3 3 4 5 6 5 5 5 5 6 6 5 7 6 4 5 5 7 7 7 6 8 8 9 8 8 8 8 6 5 5 6 7 7 7 6 6 7 8 8 8 8 7 7 7 7 7 7 7 7 7 7 7 7 7 8
5 5 4 5 5 5 4 3 3 4 5 5 7 8 8 7 6 5 6 5 5 5 7 8 7 8 8 7 7 7 8 8 9 9 5 4 4 4 5 5 5 5 6 7 8 8 8 8 8 8 8 8 7 7 7 7 7 7 7 7 8 8 9
7 7 6 6 6 7 6 5 5 5 6 6 5 6 7 7 7 7 8 8 8 8 9 9 8 8 8 5 4 1 6 8 6 6 6 6 5 4 4 4 3 4 5 6 7 7 6 7 7 8 9 8 8 7 7 7 6 7 9 8 7 8 8
9 9 9 10 10 10 10 10 10 10 10 9 8 7 5 4 4 5 5 1 4 6 8 9 9 9 9 9 7 5 4 2 2 6 6 7 7 5 4 2 2 2 2 3 4 5 5 6 8 8 8 9 9 8 8 7 7 8 11 12 13 9 8
10 10 12 12 13 14 14 14 14 12 10 9 10 11 12 11 11 10 8 6 5 1 5 5 6 5 5 8 7 7 5 3 2 3 4 6 6 6 4 4 3 1 2 3 3 3 4 6 7 7 8 7 9 9 9 8 6 9 10 11 12 11 9
10 11 12 13 14 14 14 14 12 11 11 10 9 10 10 10 12 11 9 10 8 9 7 6 6 6 5 5 7 7 6 4 6 5 4 4 5 4 3 3 4 5 4 5 5 3 4 5 6 7 6 7 7 8 9 9 5 7 9 10 11 11 10
11 12 13 14 14 14 14 11 11 11 11 11 11 12 10 10 12 10 9 8 9 10 8 9 9 8 8 8 6 4 2 3 4 6 5 5 6 6 5 6 5 5 6 6 6 5 5 6 6 5 5 5 6 7 9 10 6 4 7 9 11 11 9
10 12 13 13 14 13 12 12 12 12 10 8 8 11 11 10 11 11 10 10 10 9 10 10 10 9 8 9 9 9 9 8 8 7 6 4 3 4 4 5 5 5 5 5 6 6 6 5 5 4 5 5 4 5 8 10 3 3 4 5 6 6 6
10 12 12 12 15 13 12 11 11 11 11 8 8 9 9 9 10 12 11 11 11 9 10 10 10 9 9 10 9 8 7 8 7 6 5 4 4 4 5 5 5 5 4 4 3 1 3 5 5 6 5 3 3 4 5 3 7 4 4 3 4 1 4
10 11 12 12 13 13 12 11 11 11 10 9 9 8 8 9 9 10 11 11 11 11 10 9 9 9 9 9 8 7 6 6 6 6 6 5 5 4 4 3 3 3 3 5 5 4 3 1 4 6 6 5 4 4 4 3 11 13 8 3 3 4 3
10 11 11 11 11 11 11 11 11 11 11 12 11 9 9 9 10 11 11 10 9 10 10 9 9 8 8 8 8 7 6 6 6 6 5 5 5 6 6 4 3 4 3 2 3 4 3 2 3 4 2 2 1 3 3 0 9 9 4 3 3 4 3
11 11 11 12 13 13 12 12 12 12 12 12 12 9 9 11 12 12 11 10 10 10 10 9 8 7 8 7 6 5 6 6 6 5 5 5 5 5 4 4 3 1 1 2 2 1 1 2 2 2 3 3 5 10 8 7 7 12 10 3 2 2 3
9 10 10 11 12 12 12 12 12 12 12 12 10 9 11 11 12 12 10 10 10 10 9 8 7 6 6 6 6 6 7 6 7 6 6 6 6 6 5 4 4 4 1 2 2 3 4 3 2 4 7 8 9 10 10 9 8 10 11 9 5 3 1
6 8 10 11 11 10 10 10 10 11 11 8 8 8 9 10 12 11 10 10 10 10 7 6 6 5 5 6 7 7 7 6 6 7 6 6 5 4 4 5 4 4 3 2 1 1 2 3 6 8 7 7 7 9 9 8 7 10 13 12 9 7 5
7 8 9 10 10 11 11 11 12 12 11 9 9 9 9 11 11 10 10 10 11 8 5 5 5 6 7 7 7 7 7 7 7 6 5 5 4 5 6 6 5 3 5 6 7 7 7 7 6 6 6 6 7 6 6 7 9 5 8 11 11 12 11
8 8 7 9 10 10 12 12 11 11 10 8 8 8 9 12 12 10 10 11 8 6 6 6 5 6 7 7 7 7 7 7 8 6 5 5 5 6 6 5 6 7 7 7 7 8 8 7 6 6 5 6 5 5 5 5 6 7 6 8 10 10 10
8 9 9 8 9 10 12 12 11 11 10 8 8 7 7 9 10 10 11 9 5 6 6 6 6 6 6 6 6 6 7 7 7 7 6 6 6 6 6 6 6 6 6 6 6 6 6 5 4 4 5 5 5 4 4 5 5 6 6 4 7 9 9
6 8 10 11 8 8 10 11 12 11 10 8 9 8 8 8 10 11 10 6 5 6 6 6 6 6 6 6 6 6 5 6 6 6 6 6 6 6 6 6 6 6 6 6 6 5 5 4 4 4 5 5 5 5 4 3 3 3 5 5 4 6 8
6 6 8 10 9 9 10 11 11 11 11 10 9 9 8 8 9 10 7 5 5 5 5 5 6 6 6 5 5 6 5 5 6 6 6 6 5 6 5 5 5 5 5 5 5 5 5 4 5 5 5 4 4 3 3 2 2 2 3 3 4 2 3
5 6 7 8 8 9 9 9 9 10 10 10 8 8 8 9 8 7 5 5 4 5 5 5 5 5 5 5 4 5 5 5 4 4 5 5 4 5 5 5 5 5 5 4 4 4 4 4 4 4 4 3 3 2 2 2 2 3 4 4 4 3 4
4 5 4 6 7 7 7 7 8 9 9 9 7 7 8 7 7 6 5 5 5 5 5 5 5 4 4 5 4 4 4 4 5 4 4 5 5 4 4 5 5 5 5 5 5 4 4 4 4 4 4 3 3 2 2 2 1 3 5 5 5 5 4
5 2 3 5 5 5 6 8 9 9 9 8 6 6 7 7 6 6 6 5 5 4 5 5 5 4 5 4 3 4 4 3 4 4 3 3 3 4 5 5 4 4 4 6 5 5 4 3 2 3 3 2 2 2 2 2 3 4 4 3 3 4 4
9 7 6 5 4 5 7 7 9 10 9 7 6 6 6 6 6 5 5 5 4 4 4 4 4 5 5 4 4 4 4 3 4 4 3 3 3 3 4 6 4 4 3 4 5 4 4 3 3 4 4 4 2 2 3 3 4 7 7 4 5 5 7
10 9 8 7 7 8 8 8 9 9 9 7 6 6 6 6 5 5 5 5 5 5 4 3 3 3 4 4 4 4 3 3 4 4 4 4 4 3 3 2 4 5 2 2 4 3 1 1 4 5 5 4 4 2 2 4 7 7 7 7 8 7 6
9 9 9 8 8 10 10 10 10 10 9 7 7 7 6 6 5 5 5 4 4 5 5 5 4 3 3 3 3 3 2 2 3 3 3 4 3 3 3 2 3 1 3 3 3 5 4 4 3 1 2 4 4 5 3 4 8 10 7 5 5 6 5
Wind_Direction
165 174 185 184 183 185 183 183 184 182 183 185 188 190 189 187 184 181 184 184 190 190 187 189 194 197 199 198 195 190 193 191 191 195 196 203 207 204 204 210 210 213 219 219 212 213 211 210 214 222 226 229 235 225 227 225 228 228 226 231 237 255 273
174 180 182 187 186 187 185 181 181 182 184 186 187 187 188 187 183 185 189 189 192 192 187 190 192 196 198 200 197 191 191 193 193 191 197 196 197 204 210 206 211 209 213 222 217 210 207 207 215 220 223 224 231 231 226 225 225 232 231 223 240 255 251
180 179 174 177 184 183 176 180 183 183 184 188 187 186 188 187 185 188 186 188 192 194 191 192 194 195 196 198 197 197 196 195 194 195 200 204 203 212 207 210 213 218 221 218 218 210 204 209 205 217 221 226 235 222 225 223 224 228 226 226 235 233 239
173 170 174 179 182 162 169 178 182 185 190 191 189 189 190 189 190 188 189 191 190 189 193 196 196 197 195 196 200 199 201 200 200 203 206 207 203 205 203 204 210 218 213 219 216 214 206 200 202 207 212 225 228 233 227 231 230 225 223 225 243 240 248
174 175 173 171 161 164 173 179 183 184 188 194 192 192 192 190 185 185 189 195 196 197 197 196 196 197 200 200 203 205 206 205 203 204 205 205 200 199 206 215 207 214 220 223 209 201 200 206 206 202 205 216 227 218 222 224 229 222 222 224 248 244 254
175 161 151 143 137 135 142 148 168 174 177 185 184 178 176 170 179 186 190 192 202 204 199 198 198 193 195 200 205 206 204 205 205 203 202 196 194 201 207 209 212 212 213 219 214 211 199 208 209 205 207 211 218 221 219 218 222 221 213 224 246 258 261
149 136 131 135 124 133 146 156 168 183 185 176 163 164 168 175 177 183 183 187 195 202 201 197 198 198 200 198 201 201 203 207 206 207 206 206 200 205 203 205 209 213 220 207 214 207 200 199 203 205 211 218 216 225 218 222 227 218 213 217 224 231 241
133 125 128 137 146 153 159 162 167 179 180 174 167 167 171 174 170 180 184 185 185 192 206 210 204 202 198 199 199 203 205 209 205 204 202 208 203 210 207 208 204 207 207 212 208 207 206 202 202 206 212 219 219 222 227 226 225 234 228 228 226 232 228
126 130 137 150 159 160 143 148 152 163 177 184 181 159 138 146 180 187 185 181 181 187 196 207 209 200 192 193 197 202 205 207 206 201 201 207 210 214 215 209 208 200 207 217 213 202 212 205 208 198 206 220 220 219 230 227 234 230 228 232 233 236 242
138 141 151 158 164 165 170 170 146 158 179 186 172 163 173 170 160 179 185 180 181 195 195 196 199 191 190 198 204 204 204 203 209 211 209 211 213 215 218 216 207 197 207 211 218 206 202 211 209 199 201 218 220 224 231 228 231 229 225 227 232 237 237
144 151 163 169 168 170 181 184 172 176 181 178 151 153 167 176 186 202 184 177 184 197 201 195 189 186 192 202 206 199 201 205 208 212 214 218 220 218 219 221 217 203 209 212 217 214 206 200 208 207 207 221 223 227 228 232 231 231 235 231 231 235 242
147 159 172 174 175 177 187 194 190 174 169 155 169 171 176 174 177 183 136 129 144 184 186 184 182 191 216 210 210 205 200 202 206 214 218 219 222 223 222 222 222 214 205 216 218 212 218 213 213 213 212 219 226 228 231 232 232 232 238 240 237 234 241
143 155 167 174 176 173 176 204 217 210 196 179 155 153 138 123 155 172 172 170 185 188 156 140 125 166 213 218 222 220 210 206 207 212 216 216 219 218 217 222 227 226 223 214 220 220 226 222 220 213 224 222 228 232 229 231 235 234 236 243 245 244 245
123 129 141 135 131 157 166 172 197 219 199 194 184 167 165 160 179 184 171 180 170 168 124 132 166 182 194 199 213 222 225 219 216 221 222 216 207 215 220 227 230 230 228 222 221 228 233 237 232 225 228 232 233 233 232 231 235 232 236 242 248 248 247
126 121 116 114 110 109 128 131 131 160 162 166 174 173 170 170 179 185 195 185 158 161 165 164 172 184 188 190 200 212 221 215 216 210 194 190 195 205 217 223 227 225 229 228 233 236 237 239 244 245 243 241 239 241 239 239 235 235 230 232 235 242 248
131 131 126 120 109 99 99 114 100 91 98 90 109 126 137 157 172 186 190 184 174 176 174 167 166 174 179 137 90 166 204 204 188 173 181 192 191 193 189 207 216 235 236 238 236 237 237 242 242 246 248 247 239 238 242 240 239 224 220 229 242 239 245
121 118 119 112 105 98 94 96 95 93 88 89 94 102 104 84 80 78 64 102 184 167 158 163 160 174 160 143 143 166 178 213 170 160 152 164 167 170 170 151 181 192 213 239 250 257 251 240 241 244 246 247 248 243 241 243 240 216 213 221 231 244 248
123 112 107 103 98 94 89 84 84 81 74 71 70 74 77 77 70 58 44 35 28 141 163 153 160 156 132 142 165 188 200 145 222 219 173 160 163 162 139 144 151 211 238 235 228 224 245 248 241 242 245 247 250 250 250 253 238 215 219 223 228 230 244
120 113 109 106 102 98 91 86 82 79 75 68 67 69 68 77 76 68 64 57 39 52 84 97 101 109 130 160 177 191 214 177 188 223 218 186 172 167 176 183 178 177 194 224 230 227 222 236 248 244 243 246 250 256 258 262 241 218 227 230 233 232 236
121 116 114 110 110 105 102 98 94 86 87 88 90 86 77 69 76 73 58 49 52 54 46 64 62 63 65 63 54 57 106 160 188 201 206 188 166 169 179 181 198 204 189 194 202 215 221 223 225 235 242 253 257 261 263 262 265 222 230 237 235 233 222
119 113 110 112 112 110 106 106 103 101 90 77 80 86 83 77 82 81 69 59 57 48 52 55 61 58 54 61 62 67 64 51 44 42 42 58 104 142 162 172 170 177 193 206 218 218 224 230 233 232 238 239 244 263 277 268 241 214 285 304 286 278 239
120 116 115 114 113 109 107 105 105 103 103 105 96 91 93 94 90 83 82 79 73 67 60 58 55 52 51 53 48 45 57 74 73 57 45 44 44 50 58 56 69 83 81 110 118 128 198 231 239 241 240 227 239 232 223 251 62 14 0 358 351 225 234
115 110 110 111 111 111 110 110 103 96 92 87 84 83 78 74 73 76 75 74 76 74 70 63 60 54 53 53 52 52 48 49 58 61 50 36 29 41 51 53 49 44 51 88 88 102 81 63 224 226 233 228 218 246 272 273 47 22 1 329 284 244 259
110 112 111 109 106 105 106 104 101 99 100 98 91 90 89 85 80 73 70 66 66 68 64 61 59 56 58 58 50 42 47 46 51 56 45 40 44 21 13 23 44 46 12 65 113 122 141 104 78 63 48 49 269 238 270 121 39 14 337 289 305 305 285
124 121 120 120 120 116 111 106 105 104 100 99 96 93 90 89 85 79 72 68 67 63 64 61 56 57 68 69 66 49 48 52 54 57 61 48 41 45 41 11 12 36 57 44 11 41 154 134 100 84 69 55 41 52 64 67 40 14 349 343 317 313 281
126 119 114 113 109 109 109 111 108 102 98 95 97 102 97 87 80 78 75 72 70 68 61 55 52 51 54 58 57 56 57 56 57 52 45 48 56 50 37 16 19 2 9 69 35 359 353 351 26 67 54 46 47 48 61 67 42 19 22 19 22 345 301
89 104 110 109 107 109 102 94 91 93 92 86 86 85 84 88 86 83 80 76 72 69 65 61 63 56 51 53 54 49 48 51 52 55 49 44 49 55 55 54 38 31 30 71 111 38 340 17 68 71 62 50 50 63 66 64 57 30 16 22 13 21 26
80 82 87 94 100 103 97 93 93 93 88 83 86 87 88 87 83 82 81 78 74 71 63 63 66 67 63 58 57 59 53 46 40 46 48 36 44 54 44 28 22 36 75 69 57 54 42 46 63 73 72 59 56 57 68 72 69 64 28 22 18 27 30
124 116 110 108 102 103 107 101 93 87 85 80 77 78 85 87 86 83 80 75 70 72 73 67 59 60 66 65 64 59 56 51 43 38 39 40 36 47 53 43 32 28 29 54 66 71 67 52 40 51 59 63 50 45 53 69 67 42 48 35 25 29 34
130 127 118 105 103 103 101 100 97 93 84 78 72 71 73 82 85 82 80 74 65 70 71 69 66 64 60 59 58 58 58 53 50 46 40 35 33 39 43 41 38 31 33 32 47 57 68 69 62 57 49 51 54 61 65 67 82 72 66 57 33 26 21
131 130 122 111 106 106 101 103 104 101 91 82 78 72 73 80 86 82 76 70 66 62 58 56 58 58 58 54 47 44 53 60 52 42 38 38 37 39 41 42 38 41 26 38 40 41 47 52 56 61 59 49 38 29 45 60 87 81 73 58 53 30 6
105 104 109 117 120 108 105 103 101 101 100 92 89 87 80 80 84 86 83 75 65 61 57 52 54 56 50 48 47 39 33 44 57 53 46 43 46 47 43 44 47 49 42 41 43 37 39 35 36 42 49 59 54 35 19 36 44 50 41 32 15 7 338
117 117 118 115 114 116 114 119 116 112 106 100 93 91 90 87 86 90 90 77 69 66 63 61 58 57 56 52 51 49 39 34 33 41 51 41 46 56 53 46 46 51 48 43 41 44 34 29 32 41 42 44 45 36 25 21 35 23 13 2 349 339 319
117 110 111 127 141 135 130 123 118 117 111 106 103 99 95 90 83 73 63 58 51 58 72 71 62 62 57 52 55 54 45 49 42 34 44 49 43 40 46 47 43 52 47 35 30 25 31 25 28 27 25 24 21 14 10 14 35 45 8 352 342 329 320
140 157 161 159 154 148 131 128 124 122 118 117 118 111 101 96 91 85 75 56 43 37 54 68 71 70 68 64 56 55 45 46 48 36 36 45 54 64 46 29 41 40 55 61 32 11 9 10 11 16 9 1 15 1 359 0 15 34 49 352 331 302 313
157 161 183 182 151 135 129 131 130 130 128 126 122 112 106 102 96 91 85 80 66 51 51 54 61 63 60 54 47 43 39 27 42 45 29 38 36 34 75 93 77 19 12 50 47 52 358 320 349 352 343 335 358 19 341 350 358 356 12 341 299 278 259
160 171 176 171 156 152 146 142 139 135 136 136 133 124 121 115 107 97 82 72 64 62 64 60 67 64 67 63 56 43 30 20 20 26 29 27 32 35 24 17 127 148 143 320 323 4 63 240 271 296 302 313 333 9 156 295 315 342 343 331 316 316 314
170 169 170 172 168 157 152 153 154 152 148 146 143 135 130 120 112 102 93 79 66 58 59 54 58 61 52 55 57 54 38 28 16 8 8 13 11 8 3 6 358 38 110 65 27 0 18 100 139 250 308 308 294 321 22 31 6 347 341 328 316 319 329